Regional Weather Roundup
Issued by NWS

Home | Current Version | Previous Version | Graphics & Text | Print | Product List | Glossary On
Versions: 1 2 3 4 5 6 7 8 9 10 11 12 13 14 15 16 17 18 19 20 21 22 23 24 25 26 27 28 29 30 31 32 33 34 35 36 37 38 39 40 41 42 43 44 45 46 47 48 49 50
000
ASUS45 KTFX 152104
RWRMT
MONTANA HOURLY WEATHER ROUNDUP
NATIONAL WEATHER SERVICE GREAT FALLS MT
304 PM MDT MON SEP 15 2014

NOTE: "FAIR" INDICATES FEW OR NO CLOUDS BELOW 12000 FEET WITH NO
SIGNIFICANT WEATHER AND/OR OBSTRUCTIONS TO VISIBILITY.

* THESE STATIONS ARE NOT UNDER NWS QUALITY CONTROL. THEY DO NOT
   REPORT WEATHER SUCH AS PRECIPITATION OR FOG.

MTZ001>007-043-152200-
WEST OF THE DIVIDE
CITY           SKY/WX    TMP DP  RH WIND       PRES   REMARKS
KALISPELL      SUNNY     73  36  26 SE5       30.05F
MISSOULA       SUNNY     75  28  18 VRB3      30.05F
BUTTE          SUNNY     75  27  17 E5        30.15F
MULLAN PASS    SUNNY     68  28  22 CALM      30.18S
* LINCOLN      N/A       75  30  19 SW7        N/A
* LOOKOUT PASS N/A       73  29  20 N5G11      N/A
* POLSON       N/A       75  40  28 SE3        N/A
* RONAN APT    SUNNY     73  39  29 N/A        N/A
* SEELEY LAKE  N/A       76  32  20 N5         N/A
* THOMP F APT  SUNNY     76  29  18 S9G17      N/A
$$

MTZ008-052>055-152200-
SOUTHWEST MONTANA
CITY           SKY/WX    TMP DP  RH WIND       PRES   REMARKS
BOZEMAN        SUNNY     72  37  28 CALM      30.12F
DILLON         SUNNY     79  25  14 S9        30.12F
W YELLOWSTONE  SUNNY     72  27  19 W9G21     30.22F
* THREE FORKS  SUNNY     72  52  49 N/A        N/A
* BOULDER HILL N/A       72  34  25 SW4        N/A
* MONIDA PASS  N/A       72  25  17 NW16       N/A
* RAYNOLDS PAS N/A       73  66  79 W14G19     N/A
* WHITEHALL    N/A       74  41  31 SE3        N/A
* WISE RIVER   N/A       76  22  13 NW11G20    N/A
$$

MTZ009>010-012-014-046-048-049-054-152200-
EAST SLOPES AND CENTRAL MONTANA
CITY           SKY/WX    TMP DP  RH WIND       PRES   REMARKS
CUT BANK       SUNNY     73  39  29 CALM      30.04F
GREAT FALLS    SUNNY     75  34  22 SW3       30.04F
HELENA         SUNNY     75  37  25 CALM      30.07F
MALMSTROM AFB  SUNNY     73  39  29 N5        30.05F
* CONRAD       SUNNY     75  39  27 N/A        N/A
* EAST GLACIER N/A       70  33  26 W8G13      N/A
* MONARCH      N/A       70  20  15 N/A        N/A
* PENDROY      N/A       74  39  28 SE6        N/A
* ROGERS PASS  N/A       71  21  15 SE12G24    N/A
* SAINT MARY   N/A       72  33  24 SW9G18     N/A
* SWEET GRASS  N/A       70  38  31 S8G16      N/A
$$

MTZ011-013-016-021-035-040-045-047-050-051-152200-
NORTH CENTRAL MONTANA
CITY           SKY/WX    TMP DP  RH WIND       PRES   REMARKS
HAVRE          SUNNY     72  39  30 CALM      30.04F
LEWISTOWN      SUNNY     73  37  27 VRB5      30.08F
* CHESTER      N/A       71  36  28 S3G10      N/A
* DENTON       N/A       78  36  22 SE1        N/A
* JUDITH GAP   N/A       66  38  36 S8         N/A
* LOMA         N/A       73  39  29 S3         N/A
$$

MTZ017>020-022>027-061-062-152200-
NORTHEAST MONTANA
CITY           SKY/WX    TMP DP  RH WIND       PRES   REMARKS
GLASGOW        SUNNY     66  36  33 SW8       30.08F
GLENDIVE       SUNNY     66  37  34 SW6       30.13F
JORDAN         SUNNY     70  37  30 S7        30.08F
SIDNEY         SUNNY    N/A N/A N/A S9        30.13F
WOLF POINT     SUNNY     70  30  23 CALM      30.09F
* BEAVER HILL  N/A       66  35  32 SE2G14     N/A
* CIRCLE       N/A       69  39  34 S1         N/A
* LINDSAY DVD  N/A       64  34  33 S6G16      N/A
* NAVAJO       N/A       67  31  26 SW9G17     N/A
* SACO         N/A       69  37  31 SE8G15     N/A
$$

MTZ028>042-056>058-152200-
SOUTHCENTRAL AND SOUTHEAST MONTANA
CITY           SKY/WX    TMP DP  RH WIND       PRES   REMARKS
BAKER          SUNNY     68  39  35 S12G17    30.14F
BILLINGS       SUNNY     70  43  38 S5        30.10F
LIVINGSTON     SUNNY     73  39  29 S3        30.10F
MILES CITY     SUNNY     70  37  30 E7        30.10F
* LAUREL APT   SUNNY     70  41  35 E5         N/A
* ROUNDUP APT  SUNNY     70  41  35 S6         N/A
* ALZADA       N/A       68  43  40 E5G11      N/A
* HYSHAM       N/A       70  33  26 SE3G10     N/A
* LAME DEER    N/A       65  41  42 SE6G13     N/A
* REED POINT   N/A       71  38  30 NW3        N/A
* ROSCOE HILL  N/A       70  34  27 NE3        N/A
$$

REGIONAL REPORTS...DAKOTAS
CITY           SKY/WX    TMP DP  RH WIND       PRES   REMARKS
WILLISTON      SUNNY     66  32  28 S10       30.12F
DICKINSON      SUNNY     64  36  35 SW9G18    30.14F
BEACH          N/A       64  36  35 S9G16     30.14F
CROSBY         SUNNY     68  32  26 SW10G17   30.11F
TIOGA          SUNNY     66  28  24 W8        30.15F
WATFORD CITY   SUNNY     68  30  24 SW7       30.11F
BISMARCK       SUNNY     70  36  29 SW12G20   30.18F
GRAND FORKS    PTCLDY    66  39  37 W16G24    30.12F
FARGO          SUNNY     64  36  35 W10G17    30.17F
BUFFALO SD     SUNNY     66  39  37 S9        30.10F
RAPID CITY     SUNNY     66  45  47 S18G26    30.18F
$$

REGIONAL REPORTS...WYOMING/IDAHO/WASHINGTON
CITY           SKY/WX    TMP DP  RH WIND       PRES   REMARKS
GILLETTE       SUNNY     72  45  38 SE15      30.14F
SHERIDAN       SUNNY     72  45  38 CALM      30.10F
CODY           SUNNY     68  41  38 SW3       30.13F
YELLOWSTONE LA SUNNY     68  28  22 SW8       30.32F
SALMON         SUNNY     73  34  24 W3        30.08F
MULLAN PASS    SUNNY     68  28  22 CALM      30.18S
SAND POINT     SUNNY     73  41  32 E5        30.00F
SPOKANE        SUNNY     79  36  21 E5        29.99F

$$



USA.gov is the U.S. government's official web portal to all federal, state and local government web resources and services.